Location: Ahausen
(50.4985°N, 8.2722°E)
Time: 19:15:57
(UTC+00:00)

Cosmos 1536 Rocket - Pass Details

Date: 18 September 2020
Orbit: 606 x 631 km, 82.5° (Epoch: 20 October)

Event Time Altitude Azimuth Distance (km) Brightness Sun altitude
Rises 18:30:55 0° 355° (N) 2,913 7.3 -9.9°
Reaches altitude 10° 18:33:18 10° 4° (N) 2,006 6.3 -10.3°
Maximum altitude 18:37:26 37° 72° (ENE) 985 4.2 -10.9°
Enters shadow 18:41:16 12° 139° (SE) 1,898 5.5 -11.5°
